Location: Ravensburg
(47.7866°N, 9.6124°E)
Time: 09:07:09
(UTC+02:00)

YUBILEINY - Pass Details

Date: 19 March 2026
Orbit: 1477 x 1509 km, 82.5° (Epoch: 17 April)

Event Time Altitude Azimuth Distance (km) Brightness Sun altitude
Rises 04:29:57 0° 346° (NNW) 4,619 ? -20.0°
Reaches altitude 10° 04:33:04 10° 339° (NNW) 3,632 ? -19.5°
Maximum altitude 04:40:47 38° 276° (W) 2,126 ? -18.3°
Enters shadow 04:46:45 17° 219° (SW) 3,101 ? -17.4°
